Weather in Andriivka

Ukraine / Dnipropetrovsk Region     48°34′50″N   34°03′22″E
temp.,
°C
wind,
m/s
gust,
m/s
humid.,
%
clouds,
%
prec.,
mm/h
press.,
hPa
HPBL,
m
1 december, wed
wed123:00+1wnw4970100 0.0 999328
02:00−1w59805 0.0 1000268
05:00−2sw4984100 0.0 1000262
08:000sw71363100 0.0 1000734
11:00+1sw71280100 0.0 1000822
14:00+1wsw61194100 0.4 1000756
17:00+2w6118492 0.3 1002683
20:000wnw498940 0.3 1005281
2 december, thu
thu223:00−1w369465 0.1 1008181
02:00−2wsw35905 0.1 1010131
05:00−2ssw358570 0.0 101099
08:00−1s5108587 0.0 1011305
11:00+4s8156699 0.0 1010627
14:00+6ssw8157363 0.0 1008700
17:00+6ssw7158548 0.0 1008484
20:00+6ssw81790100 0.0 1008571
3 december, fri
fri323:00+8sw81487100 0.0 1009702
02:00+8ssw61292100 0.0 1008519
05:00+7ssw61391100 0.0 1008392
08:00+9ssw81385100 0.0 1008830
11:00+10s9157022 0.0 10071063
14:00+12s9147018 0.0 10051153
17:00+10s81581100 0.0 1005577
20:00+9ssw71391100 0.0 1007545
4 december, sat
sat423:00+7wsw4894100 0.0 1008354
02:00+2nnw61095100 0.5 1012402
05:00+2nnw5788100 0.8 1013525
08:00+2nnw4673100 0.9 1015414
11:00+3n455799 0.0 1015547
14:00+3nne345240 0.0 1015515
17:00+1ne336489 0.0 101670
20:00−1ene356694 0.0 101676
5 december, sun
sun523:00−1ne356338 0.0 101693
02:00−1ene3761100 0.0 1016138
05:00−1e496093 0.0 1015185
08:00−1e410605 0.0 1015209
11:00+3ese455910 0.0 1015349
14:00+4ese3672100 0.0 1014263
17:00+4ese3784100 0.0 1014178
20:00+4se3790100 0.0 1014186